Other Public Products
Issued by NWS Grand Forks, ND

Home | Current Version | Previous Version | Text Only | Print | Product List | Glossary On
Versions: 1 2 3 4 5 6 7 8 9 10 11 12 13 14 15 16 17 18 19 20 21 22 23 24 25 26 27 28 29 30 31 32 33 34 35 36 37 38 39 40 41 42 43 44 45 46 47 48 49 50
000
FPUS83 KFGF 220931
OPUFGF
PRAIRIE TO PINES WEATHER ROUNDUP
NATIONAL WEATHER SERVICE EASTERN NORTH DAKOTA/GRAND FORKS ND
300 AM CST MON DEC 22 2014

 **SATELLITE DATA USED TO AUGMENT SKY COVER AT AUTOMATED STATIONS**
 *****  WEATHER ACROSS EASTERN NORTH DAKOTA  *****

CITY           SKY/WX    TMP DP  RH WIND       PRES   REMARKS
GRAND FORKS    CLOUDY    34  33  96 SE7       29.53S
GRAND FORKS AF CLOUDY    32  32 100 E3        29.53F FOG
GRAND CITY NWS   N/A     32 N/A N/A SE6         N/A
BUXTON           N/A     34  34  99 E8          N/A
DEVILS LAKE    CLOUDY    30  25  80 SE6       29.47S WCI  24
FARGO          CLOUDY    38  35  89 SE14      29.51F FOG
WAHPETON ARPT  CLOUDY    34  32  93 SE13G18   29.51S WCI  25
$$

 *****  WEATHER ACROSS CENTRAL AND WESTERN NORTH DAKOTA  *****

CITY           SKY/WX    TMP DP  RH WIND       PRES   REMARKS
JAMESTOWN      CLOUDY    32  32 100 SE7       29.45S FOG
BISMARCK       CLOUDY    28  28 100 SE6       29.45R FOG     WCI  22
MINOT          CLOUDY    28  26  92 SE8       29.44R FOG     WCI  20
MINOT AFB      FRZ DRZL  29  29 100 SE7       29.44R FOG     WCI  21
GARRISON         N/A     28  28 100 SE6       29.42R WCI  22
WILLISTON      LGT RAIN  34  32  92 NW9       29.44R
DICKINSON      MIX PCPN  35  32  88 W18       29.40R WCI  24
HETTINGER      CLOUDY    36  32  85 NW18      29.45R
$$

 *****  OTHER OBSERVATIONS NORTHEAST NORTH DAKOTA  *****

CITY           SKY/WX    TMP DP  RH WIND       PRES   REMARKS
WALHALLA         N/A     32  32 100 E3        29.55S FOG
LANGDON        CLOUDY    32  30  93 SE8       29.51R FOG     WCI  25
CAVALIER       CLOUDY    32  32 100 SE5       29.55S FOG
GRAFTON        NOT AVBL
CANDO          CLOUDY    28  28 100 SE9       29.50S WCI  20
FORT TOTTEN      N/A     30  30 100 CALM      29.95
ROLLA          FOG       27  27 100 SE15      29.49S VSB 3/4 WCI  15
RUGBY          CLOUDY    28  28 100 SE9       29.48R FOG     WCI  20
 ***** THE ABOVE OBSERVATIONS ARE NON NWS ARE NOT QUALITY
        CONTROLLED AND MAY MIS-REPORT RAIN FOR SNOW...
$$

 *****  OTHER OBSERVATIONS SOUTHEAST NORTH DAKOTA *****

CITY           SKY/WX    TMP DP  RH WIND       PRES   REMARKS
COOPERSTOWN    NOT AVBL
VALLEY CITY    LGT RAIN  32  32 100 E6        29.47S VSB 1/2
OAKES          MIX PCPN  32  32 100 E10       29.45S VSB 1/2 WCI  24
GWINNER        CLOUDY    36  36 100 SE12      29.47S VSB 3/4
SHEYENNE NWR     N/A     35  35 100 SE9       29.95S
BUFFALO        NOT AVBL
WYNDMERE         N/A     36  37 100 SE8         N/A
 ***** THE ABOVE OBSERVATIONS ARE NON NWS ARE NOT QUALITY
       CONTROLLED AND MAY MIS-REPORT RAIN FOR SNOW...
$$

  *****  WEATHER ACROSS NORTHERN MINNESOTA  *****

CITY           SKY/WX    TMP DP  RH WIND       PRES   REMARKS
FLAG ISLAND    CLOUDY    34  30  86 SE7       29.62S
WARROAD        CLOUDY    34  30  86 E5        29.62S FOG
ROSEAU         CLOUDY    34  30  86 E6        29.60S FOG
HALLOCK        MIX PCPN  34  32  93 E3        29.56F
THF RVR FALLS  CLOUDY    34  34 100 E9        29.56F
HALSTAD          N/A     35  34  96 SE9         N/A
FOSSTON        CLOUDY    32  32 100 E7        29.56F FOG
BAUDETTE       CLOUDY    33  31  92 E7        29.62R
WASKISH        CLOUDY    34  34 100 CALM      29.61S
CROOKSTON      MIX PCPN  36  34  93 SE8       29.55F
$$
  *****  WEATHER ACROSS CENTRAL AND WEST MINNESOTA  *****

CITY           SKY/WX    TMP DP  RH WIND       PRES   REMARKS
BEMIDJI        CLOUDY    33  33  99 SE8       29.58F FOG
PARK RAPIDS    CLOUDY    35  34  96 SE10      29.57S FOG
WADENA         RAIN      34  34 100 SE9       29.56F
DETROIT LAKES  CLOUDY    36  34  93 SE10      29.54S FOG
MOORHEAD       CLOUDY    37  37 100 SE12      29.52S FOG
FERGUS FALLS   CLOUDY    36  36 100 SE14      29.55S FOG
ELBOW LAKE     CLOUDY    35  35 100 SE16      29.52F FOG     WCI  25
MORRIS MN      CLOUDY    36  36 100 SE16      29.52F FOG
STAPLES        CLOUDY    34  34 100 SE7       29.58F FOG
WHEATON        CLOUDY    34  32  93 SE12      29.52S FOG
$$
  *****  WEATHER ELSEWHERE ACROSS MINNESOTA  *****

CITY           SKY/WX    TMP DP  RH WIND       PRES   REMARKS
DULUTH         LGT SNOW  33  32  96 SE6       29.69F FOG
INTRNTL FALLS  CLOUDY    33  31  92 SE7       29.65S FOG
ELY            CLOUDY    34  32  93 SE6       29.69F
CLOQUET        CLOUDY    34  32  93 SE5       29.69S FOG
BRAINERD       CLOUDY    36  35  96 SE8       29.63S FOG
HIBBING        FLURRIES  33  31  92 SE8       29.67S
ALEXANDRIA     CLOUDY    36  35  96 SE14      29.55F FOG
SAINT CLOUD    CLOUDY    39  36  89 SE13      29.62F FOG
MINNEAPOLIS    CLOUDY    38  36  92 SE15      29.69F
$$

  *****  WEATHER ACROSS SOUTH DAKOTA  *****

CITY           SKY/WX    TMP DP  RH WIND       PRES   REMARKS
SIOUX FALLS    LGT RAIN  40  39  97 S16       29.51S
BROOKINGS      NOT AVBL
WATERTOWN      CLOUDY    36  35  96 S17       29.45S FOG
HURON          CLOUDY    36  35  96 S9        29.44R
SISSETON         N/A     35  35 100 S10       29.47F
ABERDEEN       CLOUDY    35  33  92 E3        29.44S FOG
MITCHELL       LGT RAIN  37  36  96 S12       29.46S FOG
PIERRE         MIX PCPN  32  30  92 CALM      29.44R FOG
MOBRIDGE       CLOUDY    29  28  96 CALM      29.41S FOG
RAPID CITY     MOCLDY    40  29  64 NW24G31   29.52R
$$

  *****  SOME WEATHER IN NEARBY STATES *****

CITY           SKY/WX    TMP DP  RH WIND       PRES   REMARKS
GLASGOW MT     FLURRIES  33  27  78 NW24G33   29.54R WCI  20
GREAT FALLS MT PTCLDY    32  25  75 SW13      29.72R WCI  22
CHEYENNE WY    PTCLDY    29  20  69 NW20G29   29.68R WCI  16
SCOTTSBLUFF NE CLOUDY    37  28  70 W17       29.65R
OMAHA NE       LGT RAIN  43  42  97 S18       29.60F FOG
DES MOINES IA  CLOUDY    41  38  89 S14       29.70F
DAVENPORT IA   CLOUDY    36  30  79 SE16      29.86F
CHICAGO IL     MOCLDY    28  25  88 SE7       29.97F WCI  21
EAU CLAIRE WI  CLOUDY    36  33  89 S9        29.77F FOG
LA CROSSE WI   CLOUDY    38  33  82 S10       29.81F
$$

  *****  SOME NATIONAL WEATHER *****

CITY           SKY/WX    TMP DP  RH WIND       PRES   REMARKS
LA GUARDIA NY  CLOUDY    36  30  80 N3        30.32F
RALEIGH NC     LGT RAIN  37  33  85 NE7       30.15F
ATLANTA GA     DRIZZLE   46  45  93 E14       30.03F FOG
NEW ORLEANS LA FOG       57  56  96 E6        29.88F VSB 1/2
OKLAHOMA CITY  CLOUDY    48  45  87 SE13      29.55F
ALBUQUERQUE NM MOCLDY    35  28  75 SE7       29.92R
SALT LAKE CITY CLOUDY    43  34  70 NW7       30.03S
LOS ANGELES CA PTCLDY    54  53  97 E3        30.03F
BOISE ID       CLOUDY    40  39  97 CALM      30.08F FOG
SEATTLE WA     MOCLDY    50  44  80 SW7       30.13R
$$

*** WEATHER ACROSS MANITOBA...SASKATCHEWAN AND ONTARIO ***
                ***ONTARIO***

CITY           SKY/WX    TMP DP  RH WIND       PRES   REMARKS
GERALDTON      NOT AVBL
THUNDER BAY    CLOUDY    36  34  93 SE5       29.80S
SIOUX LOOKOUT  CLOUDY    32  30  93 S7        29.69
TORONTO        CLOUDY    32  23  69 SE7       30.23F
BIG TROUT LK   FLURRIES  28  28 100 S7        29.73F WCI  21
PICKLE LAKE    NOT AVBL
DRYDEN         CLOUDY    32  30  93 S6        29.67S
KENORA         CLOUDY    30  30 100 SE8       29.64  FOG     WCI  23
$$
                *** MANITOBA***

CITY           SKY/WX    TMP DP  RH WIND       PRES   REMARKS
BRANDON        FOG       28  27  93 E7        29.53R VSB 1   WCI  21
DAUPHIN        CLOUDY    25  23  93 E5        29.58R FOG     WCI  19
ISLAND LAKE    FLURRIES  28  27  93 CALM      29.68R
PILOT MOUND      N/A     28  28 100 CALM        N/A
THE PAS        FOG       25  25 100 NE5       29.66R VSB 1   WCI  19
THOMPSON       NOT AVBL
WINNIPEG       CLOUDY    30  30 100 E9        29.61S FOG     WCI  22
LYNN LAKE      CLOUDY    12  10  92 NE8       29.74S FOG     WCI   1
CHURCHILL      FLURRIES  16  14  93 W5        29.82  WCI   9
GILLAM         FRZ DRZL  19  18  93 NE9       29.78  WCI   9
$$
                ***SASKATCHEWAN***

CITY           SKY/WX    TMP DP  RH WIND       PRES   REMARKS
ESTEVAN        FOG       28  28 100 E10       29.43R VSB 1/4 WCI  19
KINDERSLEY     FLURRIES  21  18  86 NW10      29.60  WCI  10
LLOYDMINSTER   FLURRIES  19  18  93 NW7       29.60R WCI  10
PRINCE ALBERT  CLOUDY    23  21  93 E8        29.62  FOG     WCI  14
REGINA         CLOUDY    25  23  93 N6        29.50  WCI  18


USA.gov is the U.S. government's official web portal to all federal, state and local government web resources and services.